This is the latest recevied weather packets stored in our database for station/object SV7GBF-2. If no packets are shown the sender has not sent any weather packets the latest 10 day(s).
| Time | Temp. | Humidity | Pressure | Rain* | Wind** | Luminosity | Snow |
|---|---|---|---|---|---|---|---|
| 1788146044 | 21.67° C | 52% | 1016 hPa | - | - | - | - |
| 1788145443 | 22.22° C | 51% | 1017 hPa | - | - | - | - |
| 1788144843 | 22.22° C | 50% | 1017 hPa | - | - | - | - |
| 1788144243 | 22.22° C | 49% | 1017 hPa | - | - | - | - |
| 1788143641 | 22.78° C | 50% | 1016 hPa | - | - | - | - |
| 1788143043 | 22.22° C | 51% | 1016 hPa | - | - | - | - |
| 1788142444 | 22.22° C | 49% | 1016 hPa | - | - | - | - |
| 1788141841 | 22.78° C | 47% | 1017 hPa | - | - | - | - |
| 1788141243 | 22.78° C | 48% | 1016 hPa | - | - | - | - |
| 1788140641 | 22.78° C | 48% | 1016 hPa | - | - | - | - |
| 1788140044 | 22.78° C | 46% | 1017 hPa | - | - | - | - |
| 1788139443 | 23.33° C | 44% | 1016 hPa | - | - | - | - |
| 1788138843 | 23.89° C | 43% | 1016 hPa | - | - | - | - |
| 1788138243 | 23.33° C | 42% | 1017 hPa | - | - | - | - |
| 1788137645 | 23.33° C | 39% | 1016 hPa | - | - | - | - |
| 1788137043 | 23.89° C | 40% | 1016 hPa | - | - | - | - |
| 1788136443 | 24.44° C | 40% | 1016 hPa | - | - | - | - |
| 1788135844 | 24.44° C | 39% | 1016 hPa | - | - | - | - |
| 1788135243 | 25° C | 34% | 1016 hPa | - | - | - | - |
| 1788134643 | 25.56° C | 38% | 1016 hPa | - | - | - | - |
| 1788134043 | 25° C | 41% | 1016 hPa | - | - | - | - |
| 1788133443 | 25° C | 45% | 1016 hPa | - | - | - | - |
| 1788132843 | 23.89° C | 47% | 1016 hPa | - | - | - | - |
| 1788132257 | 23.89° C | 47% | 1016 hPa | - | - | - | - |
| 1788131044 | 23.89° C | 51% | 1016 hPa | - | - | - | - |
* Rain since midnight (hover to see other rain measurements)
** Current wind speed in m/s (hover to see current wind gust speed)